Location: Kitchener-Waterloo
(43.4500°N, 80.5000°W)
Time: 18:11:32
(UTC-04:00)

Amateur Radio Satellites - All Passes

Search period start: 25 July 2014 17:41
Search period end: 26 July 2014 17:41
Location: Kitchener-Waterloo, 43.4500°N, 80.5000°W

Satellite Date Start Highest point End Downlink Frequencies (MHz)
Time Altitude Azimuth
AO-7 25 Jul 17:51:25 17:59:05 39° 262° (W) 18:06:48 29.400 - 29.500 MHz
OPAL 25 Jul 17:52:22 17:57:25 74° 289° (WNW) 18:02:30 ?
KITSAT 1 25 Jul 18:00:08 18:07:16 36° 252° (WSW) 18:14:23 435.175 FM
UOSAT-12 25 Jul 18:32:49 18:34:44 12° 330° (NNW) 18:36:39 437.025 FM, 437.400 FM
SO-67 25 Jul 18:50:59 18:53:24 18° 68° (ENE) 18:55:49 435.3500 MHz FM
Hamsat 25 Jul 18:57:08 19:01:11 50° 261° (W) 19:05:17 145.90 MHz
Saudisat 1A 25 Jul 19:02:09 19:05:37 23° 247° (WSW) 19:09:03 436.775 MHz
JAS-2 25 Jul 19:05:56 19:13:47 73° 258° (WSW) 19:21:16 435.800 - 435.900 CW/SSB, 435.910 FM
OPAL 25 Jul 19:34:07 19:35:27 11° 306° (NW) 19:36:47 ?
RS-15 25 Jul 19:56:27 20:04:53 24° 6° (N) 20:13:23 29.354 - 29.394 USB, Beacon 29.352 USB
STRAND 1 25 Jul 20:09:19 20:14:27 70° 102° (ESE) 20:19:31 ?
SO-67 25 Jul 20:23:16 20:26:17 27° 264° (W) 20:29:19 435.3500 MHz FM
HO-68 25 Jul 20:44:10 20:50:54 46° 64° (ENE) 20:57:38 435.675 MHz FM
UKube-1 25 Jul 20:55:41 20:59:16 25° 66° (ENE) 21:02:52 145.840 MHz, 145.915 MHz
JAS-2 25 Jul 20:56:02 20:59:48 14° 275° (W) 21:03:32 435.800 - 435.900 CW/SSB, 435.910 FM
SO-50 25 Jul 21:17:06 21:20:27 19° 38° (NE) 21:23:50 436.795 FM
Oscar 11 25 Jul 21:44:25 21:48:24 38° 70° (ENE) 21:52:24 145.825 FM, Beacon 2401.500 USB
MaSat-1 25 Jul 21:47:23 21:49:56 16° 100° (E) 21:52:42 437.345 MHz
STRAND 1 25 Jul 21:49:54 21:53:04 17° 300° (WNW) 21:56:13 ?
FUNcube-1 25 Jul 21:56:38 21:59:48 20° 66° (ENE) 22:02:56 145.950 - 145.970 MHz USB
RS-15 25 Jul 22:10:41 22:21:04 44° 39° (NE) 22:31:42 29.354 - 29.394 USB, Beacon 29.352 USB
UKube-1 25 Jul 22:31:26 22:35:21 32° 263° (W) 22:39:17 145.840 MHz, 145.915 MHz
HO-68 25 Jul 22:32:09 22:38:41 37° 263° (W) 22:45:15 435.675 MHz FM
SO-50 25 Jul 22:56:49 23:01:35 80° 237° (WSW) 23:06:23 436.795 FM
Lituanica SAT-1 25 Jul 23:17:33 23:18:00 10° 135° (SE) 23:18:27 437.275 MHz beacon
Oscar 11 25 Jul 23:21:33 23:24:43 20° 267° (W) 23:27:55 145.825 FM, Beacon 2401.500 USB
MaSat-1 25 Jul 23:22:43 23:26:40 50° 302° (WNW) 23:31:17 437.345 MHz
FUNcube-1 25 Jul 23:31:52 23:35:58 39° 262° (W) 23:40:01 145.950 - 145.970 MHz USB
UOSAT-12 25 Jul 23:37:47 23:41:52 27° 43° (NE) 23:45:54 437.025 FM, 437.400 FM
RS-15 26 Jul 00:23:12 00:34:03 66° 244° (WSW) 00:45:19 29.354 - 29.394 USB, Beacon 29.352 USB
Lituanica SAT-1 26 Jul 00:48:14 00:50:12 42° 331° (NNW) 00:52:10 437.275 MHz beacon
PCSat 26 Jul 01:08:08 01:12:02 21° 106° (ESE) 01:15:57 145.825 MHz
UOSAT-12 26 Jul 01:17:41 01:22:12 45° 242° (WSW) 01:26:39 437.025 FM, 437.400 FM
ISS 26 Jul 01:20:00 01:23:09 39° 140° (SE) 01:26:19 145.800 FM
Oscar 16 26 Jul 01:35:57 01:37:55 12° 88° (E) 01:39:52 437.025 USB, Beacon 2401.1428
AO-27 26 Jul 02:08:48 02:09:47 11° 87° (E) 02:10:46 436.795 MHz FM
Uribyol 2 26 Jul 02:10:11 02:11:54 12° 88° (E) 02:13:37 436.500 FM
Sapphire 26 Jul 02:15:45 02:21:07 71° 117° (ESE) 02:26:32 437.095 MHz 1200 baud AX-25 AFSK
Lituanica SAT-1 26 Jul 02:22:26 02:23:03 11° 350° (N) 02:23:41 437.275 MHz beacon
JAS-1B 26 Jul 02:30:02 02:36:27 20° 83° (E) 02:42:19 435.800 - 435.900 CW/SSB
RS-15 26 Jul 02:39:17 02:44:10 14° 264° (W) 02:49:08 29.354 - 29.394 USB, Beacon 29.352 USB
Oscar 19 26 Jul 02:45:00 02:50:03 52° 100° (E) 02:55:06 437.125 CW, 437.150 USB
AO-40 26 Jul 02:47:42 04:31:35 23° 216° (SW) 07:48:57 Beacon 2401.320
PCSat 26 Jul 02:49:38 02:54:58 60° 304° (NW) 03:00:21 145.825 MHz
ISS 26 Jul 02:56:45 02:59:54 36° 338° (NNW) 03:03:03 145.800 FM
Oscar 16 26 Jul 03:12:44 03:17:55 84° 285° (WNW) 03:23:05 437.025 USB, Beacon 2401.1428
ITAMSAT 1 26 Jul 03:26:33 03:31:40 58° 101° (E) 03:36:45 435.822 SSB
TMSAT-1 26 Jul 03:27:03 03:30:43 19° 91° (E) 03:34:22 436.925 FM
AO-Echo 26 Jul 03:28:14 03:33:22 65° 101° (ESE) 03:38:17 ?
OPAL 26 Jul 03:30:48 03:35:02 30° 64° (ENE) 03:39:18 ?
AO-27 26 Jul 03:44:49 03:50:03 87° 104° (ESE) 03:55:13 436.795 MHz FM
Uribyol 2 26 Jul 03:46:52 03:52:04 87° 285° (WNW) 03:57:13 436.500 FM
Gurwin Techsat 1B 26 Jul 03:48:18 03:53:17 40° 98° (E) 03:58:14 435.225 FM
Lituanica SAT-1 26 Jul 03:55:39 03:56:11 11° 9° (N) 03:56:43 437.275 MHz beacon
Sapphire 26 Jul 04:00:55 04:05:05 22° 317° (NW) 04:09:17 437.095 MHz 1200 baud AX-25 AFSK
AO-7 26 Jul 04:01:24 04:04:42 13° 86° (E) 04:07:58 29.400 - 29.500 MHz
JAS-1B 26 Jul 04:18:42 04:28:26 86° 105° (ESE) 04:36:49 435.800 - 435.900 CW/SSB
Oscar 19 26 Jul 04:25:11 04:29:02 22° 297° (WNW) 04:32:53 437.125 CW, 437.150 USB
ISS 26 Jul 04:34:43 04:37:17 20° 358° (N) 04:39:51 145.800 FM
PCSat 26 Jul 04:36:53 04:39:33 14° 326° (NW) 04:42:14 145.825 MHz
Oscar 16 26 Jul 04:54:26 04:56:28 12° 303° (WNW) 04:58:30 437.025 USB, Beacon 2401.1428
TMSAT-1 26 Jul 05:05:49 05:11:02 58° 288° (WNW) 05:16:12 436.925 FM
ITAMSAT 1 26 Jul 05:07:04 05:10:43 20° 299° (WNW) 05:14:22 435.822 SSB
AO-Echo 26 Jul 05:08:15 05:11:34 18° 300° (WNW) 05:14:50 ?
OPAL 26 Jul 05:09:20 05:13:50 35° 261° (W) 05:18:22 ?
Uosat F 26 Jul 05:22:18 05:27:10 48° 100° (E) 05:32:00 435.120 FM
AO-27 26 Jul 05:26:15 05:28:49 14° 302° (WNW) 05:31:23 436.795 MHz FM
Lituanica SAT-1 26 Jul 05:27:05 05:29:02 39° 29° (NNE) 05:30:57 437.275 MHz beacon
Uribyol 2 26 Jul 05:28:33 05:30:45 13° 303° (WNW) 05:32:56 436.500 FM
Gurwin Techsat 1B 26 Jul 05:28:35 05:33:05 29° 295° (WNW) 05:37:34 435.225 FM
STRAND 1 26 Jul 05:49:54 05:52:58 16° 59° (ENE) 05:56:01 ?
AO-7 26 Jul 05:50:38 05:58:59 69° 105° (ESE) 06:07:13 29.400 - 29.500 MHz
MaSat-1 26 Jul 06:04:17 06:06:21 12° 39° (NE) 06:08:24 437.345 MHz
Oscar 10/S400 26 Jul 06:05:25 07:22:08 37° 236° (WSW) 11:49:34 145.825 - 145.975 CW/USB, Beacon 145.810 USB
JAS-1B 26 Jul 06:10:08 06:17:41 27° 307° (NW) 06:24:38 435.800 - 435.900 CW/SSB
ISS 26 Jul 06:11:45 06:14:45 29° 18° (NNE) 06:17:45 145.800 FM
JAS-2 26 Jul 06:18:00 06:20:54 14° 85° (E) 06:23:40 435.800 - 435.900 CW/SSB, 435.910 FM
KITSAT 1 26 Jul 06:34:38 06:41:30 32° 107° (ESE) 06:48:23 435.175 FM
Hamsat 26 Jul 06:41:56 06:45:32 25° 95° (E) 06:49:08 145.90 MHz
Lituanica SAT-1 26 Jul 07:00:33 07:01:12 11° 225° (SW) 07:01:51 437.275 MHz beacon
Uosat F 26 Jul 07:01:49 07:05:38 22° 297° (WNW) 07:09:26 435.120 FM
STRAND 1 26 Jul 07:26:24 07:31:32 74° 257° (WSW) 07:36:43 ?
MaSat-1 26 Jul 07:39:36 07:44:53 57° 59° (ENE) 07:49:56 437.345 MHz
AO-7 26 Jul 07:44:12 07:51:09 31° 305° (NW) 07:58:04 29.400 - 29.500 MHz
SO-67 26 Jul 07:46:21 07:48:47 18° 93° (E) 07:51:13 435.3500 MHz FM
ISS 26 Jul 07:48:20 07:51:40 61° 217° (SW) 07:54:59 145.800 FM
JAS-2 26 Jul 08:00:47 08:07:01 83° 286° (WNW) 08:12:31 435.800 - 435.900 CW/SSB, 435.910 FM
Hamsat 26 Jul 08:17:45 08:21:29 30° 291° (WNW) 08:25:14 145.90 MHz
KITSAT 1 26 Jul 08:28:22 08:36:24 64° 307° (NW) 08:44:28 435.175 FM
Saudisat 1A 26 Jul 09:08:36 09:12:59 69° 122° (ESE) 09:17:24 436.775 MHz
MaSat-1 26 Jul 09:17:52 09:21:49 22° 257° (WSW) 09:25:37 437.345 MHz
SO-67 26 Jul 09:18:54 09:21:54 27° 289° (WNW) 09:24:52 435.3500 MHz FM
Sapphire 26 Jul 09:20:29 09:23:39 15° 37° (NE) 09:26:49 437.095 MHz 1200 baud AX-25 AFSK
JAS-2 26 Jul 09:47:54 09:50:56 14° 308° (NW) 09:53:50 435.800 - 435.900 CW/SSB, 435.910 FM
PCSat 26 Jul 09:53:33 09:58:02 25° 45° (NE) 10:02:30 145.825 MHz
HO-68 26 Jul 09:57:49 10:04:31 41° 98° (E) 10:11:09 435.675 MHz FM
UKube-1 26 Jul 10:18:13 10:22:18 37° 98° (E) 10:26:20 145.840 MHz, 145.915 MHz
KITSAT 1 26 Jul 10:27:37 10:33:33 22° 332° (NNW) 10:39:30 435.175 FM
Saudisat 1A 26 Jul 10:49:52 10:53:02 19° 321° (NW) 10:56:12 436.775 MHz
Sapphire 26 Jul 11:02:38 11:08:05 72° 58° (ENE) 11:13:29 437.095 MHz 1200 baud AX-25 AFSK
Oscar 11 26 Jul 11:06:34 11:10:54 67° 102° (ESE) 11:15:13 145.825 FM, Beacon 2401.500 USB
FUNcube-1 26 Jul 11:19:47 11:23:34 33° 97° (E) 11:27:21 145.950 - 145.970 MHz USB
PCSat 26 Jul 11:36:30 11:41:50 59° 244° (WSW) 11:47:08 145.825 MHz
HO-68 26 Jul 11:45:36 11:52:11 42° 297° (WNW) 11:58:45 435.675 MHz FM
UKube-1 26 Jul 11:54:57 11:58:17 22° 295° (WNW) 12:01:36 145.840 MHz, 145.915 MHz
Oscar 19 26 Jul 12:27:42 12:29:38 12° 57° (ENE) 12:31:34 437.125 CW, 437.150 USB
KITSAT 1 26 Jul 12:28:52 12:32:43 14° 3° (N) 12:36:35 435.175 FM
RS-15 26 Jul 12:41:19 12:47:40 17° 98° (E) 12:53:56 29.354 - 29.394 USB, Beacon 29.352 USB
Oscar 11 26 Jul 12:44:32 12:46:33 13° 299° (WNW) 12:48:34 145.825 FM, Beacon 2401.500 USB
Sapphire 26 Jul 12:47:30 12:50:53 17° 255° (WSW) 12:54:16 437.095 MHz 1200 baud AX-25 AFSK
Oscar 16 26 Jul 12:53:20 12:57:08 22° 63° (ENE) 13:00:57 437.025 USB, Beacon 2401.1428
FUNcube-1 26 Jul 12:56:35 12:59:48 22° 293° (WNW) 13:03:02 145.950 - 145.970 MHz USB
AO-Echo 26 Jul 13:06:20 13:09:02 14° 58° (ENE) 13:11:44 ?
ITAMSAT 1 26 Jul 13:09:21 13:12:07 15° 58° (ENE) 13:14:53 435.822 SSB
SO-50 26 Jul 13:13:45 13:17:22 25° 113° (ESE) 13:21:02 436.795 FM
JAS-1B 26 Jul 13:15:12 13:21:49 23° 50° (NE) 13:28:47 435.800 - 435.900 CW/SSB
AO-27 26 Jul 13:26:31 13:30:20 21° 62° (ENE) 13:34:08 436.795 MHz FM
Uribyol 2 26 Jul 13:28:10 13:32:05 22° 62° (ENE) 13:36:01 436.500 FM
Gurwin Techsat 1B 26 Jul 13:35:47 13:36:44 11° 55° (NE) 13:37:42 435.225 FM
Oscar 19 26 Jul 14:03:03 14:08:10 84° 75° (ENE) 14:13:19 437.125 CW, 437.150 USB
KITSAT 1 26 Jul 14:25:15 14:31:40 25° 32° (NNE) 14:38:03 435.175 FM
Oscar 16 26 Jul 14:31:09 14:36:07 52° 260° (W) 14:41:08 437.025 USB, Beacon 2401.1428
AO-Echo 26 Jul 14:41:43 14:47:02 89° 257° (WSW) 14:52:24 ?
ITAMSAT 1 26 Jul 14:45:41 14:50:55 84° 256° (WSW) 14:56:10 435.822 SSB
RS-15 26 Jul 14:46:57 14:58:02 76° 119° (ESE) 15:08:55 29.354 - 29.394 USB, Beacon 29.352 USB
TMSAT-1 26 Jul 14:48:39 14:53:20 33° 67° (ENE) 14:58:03 436.925 FM
SO-50 26 Jul 14:53:28 14:57:42 41° 312° (NW) 15:02:03 436.795 FM
AO-7 26 Jul 15:00:40 15:07:03 25° 52° (NE) 15:13:25 29.400 - 29.500 MHz
JAS-1B 26 Jul 15:01:56 15:10:41 79° 72° (ENE) 15:20:32 435.800 - 435.900 CW/SSB
Uosat F 26 Jul 15:02:25 15:03:41 11° 56° (NE) 15:04:57 435.120 FM
AO-27 26 Jul 15:04:18 15:09:25 56° 259° (W) 15:14:35 436.795 MHz FM
Uribyol 2 26 Jul 15:06:08 15:11:12 52° 260° (W) 15:16:17 436.500 FM
Gurwin Techsat 1B 26 Jul 15:10:27 15:15:44 70° 73° (ENE) 15:21:02 435.225 FM
UOSAT-12 26 Jul 15:29:44 15:34:02 41° 117° (ESE) 15:38:26 437.025 FM, 437.400 FM
Oscar 19 26 Jul 15:46:18 15:48:10 12° 272° (W) 15:50:02 437.125 CW, 437.150 USB
Saudisat 1A 26 Jul 15:56:05 15:58:27 14° 35° (NE) 16:00:48 436.775 MHz
KITSAT 1 26 Jul 16:20:18 16:28:26 78° 56° (ENE) 16:36:30 435.175 FM
AO-Echo 26 Jul 16:24:42 16:26:30 12° 273° (W) 16:28:19 ?
TMSAT-1 26 Jul 16:28:26 16:33:13 34° 264° (W) 16:38:01 436.925 FM
ITAMSAT 1 26 Jul 16:30:41 16:31:10 10° 273° (W) 16:31:40 435.822 SSB
JAS-2 26 Jul 16:32:44 16:35:25 12° 51° (NE) 16:38:01 435.800 - 435.900 CW/SSB, 435.910 FM
Uosat F 26 Jul 16:36:34 16:41:36 77° 74° (ENE) 16:46:40 435.120 FM
AO-7 26 Jul 16:50:31 16:58:54 85° 252° (WSW) 17:07:20 29.400 - 29.500 MHz
Gurwin Techsat 1B 26 Jul 16:53:04 16:56:13 16° 270° (W) 16:59:22 435.225 FM
JAS-1B 26 Jul 16:55:00 17:02:08 27° 273° (W) 17:09:59 435.800 - 435.900 CW/SSB
RS-15 26 Jul 17:01:15 17:11:22 40° 325° (NW) 17:21:29 29.354 - 29.394 USB, Beacon 29.352 USB
UOSAT-12 26 Jul 17:10:16 17:14:19 29° 316° (NW) 17:18:26 437.025 FM, 437.400 FM
OPAL 26 Jul 17:17:15 17:22:12 53° 103° (ESE) 17:27:11 ?
